Wind_Speed
62 61 57 56 53 47 41 39 40 35 33 29 24 21 21 18 16 14 10 10 10 11 10 9 7 5 4 4 3 1 3 4 6 6 7 8 8 8 7 8 9 10 11 13 14 16 18 19 23
63 61 60 58 58 48 44 45 43 40 36 30 28 25 22 21 17 16 12 11 12 10 8 7 5 2 1 3 6 6 5 6 7 8 9 9 9 10 11 13 14 15 17 17 19 20 22 24 27
66 59 61 63 60 51 48 49 46 41 38 34 31 25 22 20 18 17 14 12 12 11 7 3 1 4 4 4 4 5 4 5 8 10 11 14 15 16 18 18 18 19 20 22 24 26 28 30 33
68 62 61 65 66 57 53 51 47 44 39 39 32 28 27 24 22 20 17 15 13 12 9 5 5 4 4 2 3 5 7 9 11 14 15 18 19 21 21 21 23 23 24 25 28 30 31 33 36
71 69 63 66 69 59 57 53 49 47 41 41 36 30 26 25 26 25 20 17 15 14 12 9 7 7 5 4 2 5 8 9 11 14 18 20 23 24 23 23 24 24 25 27 29 31 32 33 33
71 68 66 66 65 63 60 58 50 46 43 43 38 33 28 28 28 28 24 22 17 17 16 14 13 13 11 11 11 11 12 13 15 17 19 20 22 19 21 24 26 27 29 28 31 33 33 36 38
73 72 66 69 68 59 61 61 47 50 48 44 40 37 31 29 29 28 27 23 19 18 17 16 15 16 17 15 15 16 18 20 20 21 21 20 20 23 24 26 26 26 26 32 32 33 35 38 41
80 78 72 67 67 64 65 64 57 50 51 45 43 40 34 29 29 27 27 24 21 19 19 16 18 16 18 19 18 19 19 21 23 22 21 22 23 24 28 28 28 30 32 32 35 35 40 42 43
83 78 78 74 67 66 66 66 62 56 50 47 45 42 36 34 33 29 29 27 24 20 18 17 18 18 18 18 17 18 20 20 20 20 21 22 23 27 28 27 30 32 33 35 38 41 43 47 48
84 79 77 78 77 70 62 65 63 57 49 45 40 41 42 38 37 30 29 28 25 22 20 18 19 21 20 20 18 18 19 21 24 23 25 26 24 27 27 30 31 31 34 37 42 44 48 49 49
84 80 76 78 84 74 66 67 66 63 53 51 44 32 40 36 43 29 29 31 28 25 25 21 20 21 21 16 15 16 15 14 21 23 24 27 26 25 29 30 38 36 38 40 44 45 51 48 43
85 82 80 80 88 80 74 64 69 62 56 54 46 36 41 38 34 36 34 34 32 30 27 22 21 21 23 18 16 17 19 20 22 24 26 25 26 29 32 35 40 43 45 46 49 51 46 42 42
88 85 84 83 86 91 76 73 66 71 57 50 47 39 45 46 40 38 37 36 35 32 28 26 24 24 22 19 20 20 20 20 21 24 25 27 31 33 34 38 38 42 46 48 46 46 42 43 43
90 92 89 88 87 90 86 80 71 67 61 55 49 44 42 47 44 43 42 42 39 36 30 27 25 23 20 19 18 18 20 23 23 25 26 28 30 33 38 39 39 42 45 48 45 47 46 43 46
98 99 98 92 89 90 87 81 74 73 58 62 53 48 48 46 48 44 38 40 37 33 30 30 28 26 21 20 20 21 23 25 29 30 30 31 32 35 37 37 41 42 44 43 45 47 46 45 50
103 106 101 91 91 88 87 79 80 78 64 58 59 57 42 50 50 43 38 38 39 39 34 30 28 25 26 24 22 24 25 27 28 28 29 30 33 36 38 34 41 40 40 41 45 47 49 47 53
99 107 96 96 90 91 86 84 82 78 76 64 64 60 44 48 49 43 42 38 37 30 28 25 27 26 28 25 24 26 28 29 30 32 34 34 35 35 36 36 38 39 40 42 44 43 46 51 55
85 103 99 93 85 88 83 84 84 84 79 67 66 65 53 49 49 44 44 41 41 32 31 29 30 29 28 30 28 28 30 29 30 31 32 35 35 33 33 35 40 40 41 44 45 46 47 51 55
79 107 108 99 94 95 85 86 87 79 77 72 62 60 55 50 47 43 45 45 40 37 34 34 35 35 33 31 31 32 31 29 29 33 33 34 34 34 34 35 38 42 44 46 48 50 49 52 57
90 110 111 105 100 96 89 85 80 86 74 69 66 64 60 52 41 46 45 48 50 45 39 39 39 40 39 36 37 35 33 34 34 37 36 34 36 37 36 37 41 46 47 49 51 52 54 57 60
94 106 112 106 103 96 95 90 85 86 80 68 70 67 60 56 48 45 48 50 46 47 44 42 44 43 39 40 37 35 35 35 36 38 35 36 38 41 40 39 39 46 48 51 54 55 57 60 62
96 108 114 112 109 99 95 90 86 81 78 73 64 65 65 61 53 51 49 50 47 45 42 43 45 44 43 41 39 38 39 38 39 34 37 41 44 45 45 45 46 50 51 54 56 56 62 65 67
89 112 116 112 106 102 94 93 85 84 75 75 71 71 69 63 53 52 50 53 54 51 48 45 42 40 39 38 38 38 38 40 42 42 40 42 45 47 49 49 50 50 54 57 59 60 64 67 71
95 115 114 115 108 104 97 92 84 80 75 76 78 78 76 56 55 57 55 57 56 55 54 50 44 41 41 41 42 41 44 45 45 44 45 47 47 49 51 53 54 56 59 60 62 63 66 70 76
99 118 110 111 110 100 97 93 81 81 80 79 81 79 74 66 62 63 58 58 59 59 60 53 49 46 40 39 42 42 45 46 45 43 44 49 52 51 53 56 55 58 59 62 63 67 70 74 78
96 112 109 107 101 96 99 90 81 81 83 78 75 73 82 78 67 62 63 63 64 63 60 53 51 51 49 48 49 49 48 47 46 46 45 51 54 53 55 57 58 61 62 65 67 70 71 79 84
101 110 105 100 99 99 93 85 85 83 80 79 79 76 74 75 76 75 70 66 63 62 61 57 55 54 52 53 57 54 50 48 49 46 48 54 55 57 58 60 60 62 64 67 72 73 76 80 85
98 104 99 101 103 100 94 88 89 89 90 85 82 79 78 75 74 73 73 70 67 67 66 60 59 57 53 53 49 48 49 50 50 47 52 56 56 62 62 61 62 64 68 71 77 79 81 82 87
97 101 99 102 101 95 94 93 91 91 91 86 81 80 79 78 75 68 70 70 69 68 66 66 64 56 54 56 53 55 54 55 53 53 58 58 59 64 65 64 65 66 72 75 82 83 82 87 91
98 94 96 97 91 97 94 92 92 89 92 88 83 82 80 79 80 76 76 75 73 67 65 62 60 58 56 56 53 55 59 58 58 57 62 64 64 65 66 67 68 72 73 78 83 85 85 90 90
Wind_Direction
223 224 224 226 219 214 215 220 222 220 218 217 217 223 231 235 245 249 259 267 279 300 311 307 288 273 257 244 231 30 52 53 42 48 38 29 21 12 5 352 344 344 336 326 315 302 291 289 294
220 221 224 224 219 213 217 221 224 220 218 219 219 218 224 229 238 247 256 267 270 284 308 305 296 262 99 93 98 83 81 60 36 24 15 4 356 348 341 338 334 329 325 317 313 307 305 305 303
218 222 224 223 219 212 219 218 223 219 221 220 221 224 227 233 235 245 252 262 266 277 293 262 282 150 120 87 84 58 41 23 15 2 3 355 345 339 338 336 332 327 322 319 317 315 312 311 309
215 218 224 226 225 221 214 217 222 220 219 225 221 222 226 228 229 236 241 249 263 266 274 266 180 158 153 101 9 345 349 355 349 346 344 341 340 334 330 328 326 321 317 313 314 314 314 313 311
216 215 218 228 227 223 227 213 221 223 219 226 224 222 224 229 237 234 235 236 251 257 263 270 264 248 233 251 271 309 317 319 332 336 335 331 329 325 322 315 313 311 309 309 310 313 311 312 313
215 211 217 219 222 224 229 214 218 225 220 224 227 227 222 233 236 232 228 230 234 252 255 262 272 275 275 282 294 302 309 315 322 326 326 324 328 327 324 315 307 307 309 310 311 314 312 312 312
215 209 213 220 222 223 226 213 217 225 222 221 226 229 226 233 230 230 225 226 232 243 254 257 265 272 278 284 291 299 308 312 314 314 313 316 318 319 319 313 312 314 311 311 313 314 316 313 311
213 210 209 218 220 219 223 220 212 220 221 220 223 228 228 233 234 232 225 226 232 239 249 259 261 267 273 279 286 297 302 304 303 304 307 311 311 314 313 310 312 314 315 312 313 313 314 314 315
212 211 212 217 217 218 226 218 225 211 223 223 223 225 227 228 229 225 225 227 230 237 246 252 260 261 268 277 285 291 295 298 301 303 307 309 309 310 311 316 315 319 321 321 322 316 316 317 319
213 210 217 218 217 219 220 222 223 213 218 219 221 226 225 225 232 225 227 233 236 237 245 246 258 261 265 271 278 288 286 288 298 302 303 301 304 309 313 317 326 319 323 325 321 322 323 319 319
215 211 217 219 217 219 216 223 224 214 216 218 217 217 218 227 230 222 235 239 233 237 246 246 251 256 254 261 274 291 291 298 301 298 300 299 302 304 313 317 323 324 322 318 320 321 326 324 323
217 212 216 220 218 216 217 220 221 215 218 224 217 206 215 216 223 230 236 235 245 243 243 239 240 246 258 256 269 279 291 293 294 293 300 305 300 304 310 314 317 322 322 321 324 327 327 325 324
213 213 215 220 220 218 217 217 221 220 216 215 209 211 208 211 217 224 230 237 243 240 235 235 239 249 255 261 270 282 291 294 295 301 302 300 302 304 307 312 318 322 325 325 328 326 324 322 322
212 213 215 218 219 217 217 216 217 222 212 209 210 205 211 214 220 227 236 238 246 243 234 232 238 244 251 263 270 275 285 292 297 301 303 302 305 303 305 309 324 328 328 326 326 325 323 320 322
213 213 214 215 217 217 216 216 215 219 215 214 215 208 211 217 223 225 233 237 241 231 228 237 242 245 248 257 267 273 279 287 294 296 298 302 302 301 303 308 322 329 327 326 324 322 321 320 323
214 214 214 215 217 216 215 216 219 218 217 218 213 210 209 210 218 229 220 228 235 233 232 242 243 239 252 255 260 268 278 286 292 295 298 299 302 304 307 316 322 326 328 327 326 320 321 321 320
217 211 211 216 217 217 213 214 217 218 221 225 220 211 214 209 216 216 221 226 234 228 231 235 239 251 256 254 262 270 280 284 288 291 296 298 303 306 313 322 324 328 327 326 326 328 323 319 321
217 208 210 214 218 218 217 214 217 220 220 222 217 223 216 213 215 218 225 231 233 233 232 234 240 251 262 254 265 272 279 280 285 290 293 300 303 306 309 318 324 331 328 328 328 328 324 327 328
212 205 207 210 212 214 213 215 218 217 218 217 216 213 215 215 218 218 223 225 228 231 231 239 244 250 256 258 261 268 272 279 284 289 296 300 302 309 311 316 322 323 327 327 329 331 331 325 328
206 203 205 209 209 212 211 210 216 216 211 215 213 213 214 218 210 217 224 227 230 229 232 234 245 252 254 258 263 262 272 278 281 285 289 300 304 307 309 313 318 320 319 323 328 329 328 329 329
205 201 202 209 210 211 210 210 213 218 218 212 215 212 219 216 209 216 219 219 228 239 242 241 246 250 255 260 257 264 272 280 281 284 283 295 301 305 308 308 318 322 323 321 323 326 326 325 324
203 198 201 206 209 210 212 212 212 218 217 208 208 209 212 217 226 225 225 235 236 238 240 238 243 253 257 256 259 261 270 278 279 286 289 292 298 304 308 309 310 315 322 323 320 320 325 325 324
198 197 201 206 209 211 212 213 213 213 217 218 212 212 218 225 228 227 223 230 233 236 238 242 251 254 253 254 260 263 271 280 283 283 293 295 298 300 309 309 309 316 320 319 321 321 320 322 322
194 196 200 205 208 210 212 211 215 215 215 218 219 217 222 217 221 227 224 231 236 240 247 245 245 248 250 256 262 272 276 281 283 287 290 297 298 301 305 307 308 310 313 317 317 317 320 321 320
192 195 200 204 207 208 210 211 216 216 217 218 219 219 221 219 217 223 224 229 234 239 242 244 247 256 258 262 268 273 278 281 283 288 290 298 298 302 304 306 304 309 312 315 315 316 319 318 318
194 193 200 203 205 208 210 210 215 217 218 221 223 224 227 224 221 222 223 227 233 238 243 250 255 258 261 267 271 275 279 279 281 294 296 294 295 305 304 306 305 309 308 314 313 314 316 315 318
192 191 197 201 203 207 210 210 213 217 218 222 224 226 229 236 238 235 234 238 240 244 247 248 254 258 264 269 273 280 278 276 286 294 296 292 295 303 302 303 305 307 310 312 310 311 312 314 317
190 191 195 200 203 206 208 209 213 219 222 223 224 227 230 230 232 235 237 240 242 245 248 253 257 260 267 274 276 278 275 285 293 294 292 292 296 302 299 302 305 306 309 310 307 308 311 311 316
188 191 196 202 206 206 209 212 216 222 226 225 226 230 232 233 234 231 231 235 241 247 252 255 258 261 271 272 275 282 280 287 290 295 296 292 298 303 300 299 302 306 307 306 307 308 311 311 314
186 192 199 203 205 210 212 214 219 224 228 229 231 228 231 233 233 231 237 243 247 249 252 254 259 266 274 273 282 282 285 289 287 293 295 294 295 302 301 296 297 301 306 307 308 309 308 311 314
Height
10791 10797 10801 10807 10811 10817 10821 10827 10829 10833 10838 10839 10841 10843 10846 10849 10851 10852 10853 10853 10853 10853 10852 10850 10849 10848 10848 10847 10846 10846 10846 10846 10846 10845 10845 10845 10844 10844 10843 10843 10843 10842 10840 10838 10837 10834 10831 10829 10827
10783 10789 10794 10799 10804 10810 10816 10819 10824 10828 10832 10836 10837 10839 10842 10845 10848 10849 10850 10851 10852 10852 10851 10850 10848 10847 10847 10846 10846 10845 10845 10845 10845 10845 10845 10844 10843 10843 10842 10842 10841 10840 10837 10835 10833 10831 10828 10826 10823
10775 10781 10787 10791 10797 10804 10808 10812 10818 10823 10828 10830 10833 10837 10840 10843 10845 10847 10848 10849 10850 10850 10850 10849 10847 10847 10846 10845 10845 10845 10845 10845 10844 10844 10843 10843 10843 10842 10841 10840 10839 10837 10834 10831 10829 10826 10824 10822 10818
10763 10773 10779 10784 10788 10801 10800 10809 10812 10817 10823 10825 10829 10832 10835 10840 10841 10843 10845 10846 10847 10847 10848 10848 10848 10846 10845 10845 10845 10844 10843 10843 10843 10842 10842 10841 10840 10839 10838 10837 10836 10834 10831 10828 10826 10823 10820 10817 10813
10754 10763 10771 10775 10781 10793 10795 10800 10806 10813 10818 10820 10825 10827 10832 10836 10838 10839 10842 10843 10844 10845 10846 10846 10846 10846 10845 10845 10844 10843 10843 10842 10842 10841 10840 10839 10838 10837 10836 10834 10832 10830 10828 10825 10822 10819 10816 10813 10810
10744 10755 10764 10769 10772 10783 10789 10794 10801 10807 10812 10815 10821 10823 10828 10830 10834 10835 10838 10840 10841 10842 10843 10843 10843 10843 10843 10842 10842 10841 10841 10841 10841 10840 10838 10837 10836 10834 10832 10830 10828 10826 10825 10822 10818 10816 10812 10810 10807
10735 10745 10756 10758 10763 10776 10780 10786 10793 10800 10804 10809 10815 10819 10824 10825 10829 10832 10835 10836 10837 10839 10840 10841 10840 10840 10840 10840 10840 10840 10839 10839 10838 10837 10835 10834 10833 10831 10828 10826 10823 10822 10821 10818 10815 10812 10809 10805 10801
10723 10734 10744 10750 10758 10765 10768 10779 10784 10790 10798 10805 10808 10813 10819 10822 10825 10829 10831 10832 10834 10835 10837 10837 10837 10837 10837 10837 10838 10838 10838 10836 10835 10834 10832 10832 10830 10827 10824 10822 10820 10819 10818 10815 10811 10808 10804 10800 10796
10711 10724 10734 10741 10748 10751 10761 10772 10779 10785 10793 10796 10801 10808 10813 10817 10820 10824 10826 10828 10829 10831 10833 10834 10834 10834 10834 10834 10835 10835 10834 10833 10832 10831 10829 10828 10826 10823 10820 10818 10817 10815 10813 10810 10807 10803 10799 10794 10789
10699 10717 10725 10727 10731 10742 10755 10761 10771 10778 10784 10788 10795 10802 10806 10811 10814 10819 10822 10824 10826 10828 10829 10829 10829 10830 10830 10830 10831 10831 10831 10830 10829 10828 10826 10824 10821 10819 10817 10815 10813 10811 10808 10804 10801 10796 10792 10787 10781
10692 10708 10709 10712 10718 10735 10746 10752 10763 10770 10776 10778 10787 10794 10799 10806 10808 10813 10816 10819 10821 10822 10824 10824 10825 10825 10826 10827 10827 10827 10827 10826 10825 10824 10822 10820 10817 10815 10812 10810 10808 10805 10801 10798 10794 10790 10785 10778 10774
10675 10689 10692 10697 10710 10721 10734 10742 10756 10762 10761 10773 10782 10787 10793 10800 10801 10808 10811 10814 10816 10817 10819 10819 10820 10821 10822 10823 10823 10823 10822 10822 10820 10819 10817 10815 10813 10811 10809 10805 10801 10800 10795 10791 10786 10781 10776 10771 10767
10660 10670 10674 10681 10694 10707 10722 10733 10744 10752 10757 10768 10777 10778 10784 10791 10795 10802 10805 10807 10810 10811 10813 10813 10815 10816 10817 10818 10818 10818 10818 10817 10816 10814 10812 10810 10808 10805 10803 10798 10795 10792 10787 10782 10779 10774 10770 10766 10762
10644 10648 10657 10664 10679 10693 10709 10721 10736 10739 10751 10758 10767 10771 10777 10783 10788 10793 10798 10800 10803 10806 10807 10808 10810 10810 10812 10812 10813 10813 10813 10812 10811 10809 10807 10805 10802 10799 10796 10793 10789 10785 10780 10776 10771 10768 10764 10760 10756
10619 10625 10631 10646 10662 10678 10698 10710 10729 10728 10741 10749 10759 10765 10769 10775 10780 10785 10792 10795 10798 10800 10802 10803 10804 10805 10807 10807 10807 10808 10808 10807 10806 10804 10802 10800 10797 10794 10791 10788 10783 10780 10774 10770 10766 10762 10757 10753 10749
10592 10603 10616 10644 10653 10669 10683 10704 10711 10723 10735 10739 10750 10757 10761 10765 10773 10779 10784 10787 10790 10793 10795 10798 10799 10800 10801 10802 10802 10802 10802 10801 10800 10798 10796 10794 10791 10788 10785 10782 10778 10773 10767 10764 10760 10756 10751 10746 10742
10565 10590 10624 10627 10644 10658 10678 10692 10696 10711 10722 10729 10740 10747 10752 10758 10764 10770 10776 10780 10783 10787 10789 10791 10793 10794 10795 10795 10796 10796 10796 10795 10794 10791 10789 10787 10784 10782 10779 10777 10772 10767 10761 10758 10753 10748 10744 10739 10734
10560 10593 10610 10625 10641 10654 10672 10681 10683 10701 10713 10720 10730 10738 10745 10751 10754 10762 10769 10774 10778 10780 10783 10785 10787 10788 10788 10789 10790 10789 10789 10788 10787 10784 10782 10780 10777 10775 10772 10770 10765 10759 10755 10750 10746 10741 10735 10730 10724
10547 10568 10583 10603 10614 10631 10657 10663 10672 10687 10700 10710 10723 10733 10738 10741 10749 10757 10763 10767 10771 10773 10775 10778 10780 10781 10781 10782 10782 10782 10782 10781 10780 10777 10774 10772 10769 10767 10765 10762 10758 10752 10749 10743 10738 10732 10726 10721 10715
10516 10542 10570 10583 10599 10614 10634 10651 10654 10671 10688 10698 10711 10722 10729 10738 10743 10748 10754 10758 10760 10764 10767 10770 10772 10772 10774 10774 10775 10774 10775 10773 10773 10770 10767 10764 10762 10759 10757 10754 10750 10745 10740 10736 10730 10724 10717 10712 10704
10501 10531 10556 10575 10590 10602 10618 10633 10644 10668 10680 10690 10703 10714 10722 10732 10733 10738 10744 10747 10752 10755 10758 10762 10764 10765 10766 10767 10767 10767 10766 10766 10765 10763 10760 10757 10754 10750 10747 10746 10742 10736 10730 10726 10721 10715 10710 10702 10695
10488 10517 10540 10553 10569 10591 10606 10631 10639 10659 10673 10681 10694 10704 10714 10721 10726 10732 10738 10741 10742 10744 10751 10753 10754 10756 10757 10758 10759 10759 10759 10758 10756 10755 10752 10749 10746 10741 10738 10735 10731 10727 10721 10716 10711 10705 10700 10693 10684
10490 10507 10529 10546 10562 10580 10599 10614 10636 10642 10664 10680 10687 10695 10703 10710 10716 10721 10726 10726 10731 10737 10741 10744 10747 10748 10748 10749 10750 10751 10750 10749 10747 10747 10745 10741 10737 10733 10729 10725 10721 10717 10712 10705 10700 10694 10689 10683 10674
10470 10493 10511 10528 10546 10562 10588 10610 10619 10648 10665 10667 10675 10685 10692 10699 10705 10709 10712 10717 10724 10729 10734 10736 10736 10737 10739 10740 10741 10742 10741 10740 10738 10737 10736 10732 10728 10726 10721 10716 10711 10707 10702 10697 10691 10684 10678 10671 10663
10451 10475 10497 10515 10530 10564 10580 10597 10618 10632 10648 10652 10661 10671 10679 10685 10693 10698 10703 10710 10713 10718 10721 10725 10727 10728 10729 10732 10730 10732 10730 10730 10728 10728 10726 10722 10717 10716 10712 10707 10701 10697 10692 10687 10681 10674 10666 10659 10651
10454 10473 10495 10514 10543 10566 10571 10603 10615 10624 10632 10642 10652 10660 10664 10672 10683 10688 10693 10697 10701 10706 10711 10714 10717 10718 10720 10722 10721 10722 10720 10719 10718 10718 10716 10711 10707 10706 10702 10697 10692 10686 10682 10676 10669 10662 10655 10646 10637
10449 10464 10492 10519 10541 10549 10573 10595 10602 10610 10620 10630 10640 10647 10658 10667 10675 10681 10683 10687 10690 10695 10699 10702 10704 10709 10711 10710 10711 10711 10709 10708 10708 10707 10704 10700 10697 10695 10691 10686 10682 10676 10670 10665 10658 10650 10642 10633 10624
10453 10474 10495 10508 10521 10541 10562 10578 10588 10587 10600 10613 10624 10634 10643 10651 10658 10666 10672 10672 10676 10683 10688 10691 10695 10697 10699 10701 10702 10699 10697 10697 10697 10696 10692 10688 10686 10683 10679 10674 10670 10664 10658 10652 10644 10636 10628 10620 10611
10453 10470 10487 10498 10519 10542 10552 10561 10575 10580 10589 10607 10617 10623 10632 10642 10648 10652 10655 10660 10665 10671 10678 10679 10684 10687 10689 10689 10690 10687 10685 10685 10683 10681 10679 10677 10675 10671 10666 10661 10656 10651 10645 10638 10630 10622 10615 10606 10597
10460 10473 10486 10498 10521 10534 10541 10553 10563 10573 10581 10594 10603 10610 10620 10631 10636 10639 10642 10648 10653 10659 10663 10666 10670 10675 10676 10677 10678 10676 10672 10673 10670 10667 10664 10663 10661 10657 10654 10649 10643 10637 10631 10624 10617 10609 10601 10592 10584